Location: Chervonnoye
(48.6000°N, 34.4000°E)
Time: 21:09:47
(UTC+00:00)

RS-44 - Pass Details

Date: 04 December 2021
Orbit: 1175 x 1510 km, 82.5° (Epoch: 19 January)

Event Time Altitude Azimuth Distance (km) Brightness Sun altitude
Rises 16:15:53 0° 162° (SSE) 4,110 ? -23.5°
Reaches altitude 10° 16:18:43 10° 156° (SSE) 3,124 ? -24.0°
Enters shadow 16:22:38 31° 134° (SE) 1,960 ? -24.6°
Exits shadow 16:34:35 - 15° (NNE) 4,003 ? -26.6°
Sets 16:34:52 0° 15° (NNE) 4,100 ? -26.7°
